[[{"header":{"parameterUnit":"m.s-1","parameterCategory":1,"la1":30.2991,"la2":30.254,"lo1":-89.0895,"lo2":-89.0444,"dy":0.0017,"dx":0.0017,"nx":28,"ny":28,"refTime":"2023-09-24T21:00:00:Z","depth":0,"parameterNumber":2,"parameterNumberName":"U-component_of_WINDS"},"data":[0,0,0,0,0,0,0,0,0,0,0,0,0,0,0,0,0,0,0,0,0,0,0,0,0,0,0,0,0,0,0,0,0,0,0,0,0,0,0,0,0,0,0,0,0,0,0,0,0,0,0,0,0,0,0,0,0,0,-0.4627,-0.4627,0,-0.4626,-0.4626,-0.4626,-0.459,-0.4589,-0.4588,-0.4587,-0.4587,-0.4588,-0.4589,0,0,0,0,0,0,0,0,0,0,0,0,0,-0.46,-0.46,-0.4627,-0.4627,-0.4627,-0.4626,-0.4626,-0.4626,-0.459,-0.4589,-0.4588,-0.4587,-0.4587,-0.4588,-0.4589,0,0,0,0,0,0,0,0,0,0,0,0,0,-0.4606,-0.4601,-0.4627,-0.4609,-0.4607,-0.4626,-0.4626,-0.4626,-0.459,-0.4589,-0.4587,-0.4586,-0.4587,-0.4588,-0.4589,-0.4625,0,0,-0.4593,-0.4594,0,0,0,0,0,0,0,0,-0.4606,-0.4607,-0.4611,-0.461,-0.4608,-0.4606,-0.4616,-0.4626,-0.4591,-0.4597,-0.4587,-0.4585,-0.4595,-0.4596,-0.4598,-0.4625,-0.4625,-0.4594,-0.4594,-0.4595,-0.4595,0,0,0,0,0,0,0,-0.4606,-0.4607,-0.4626,-0.4611,-0.461,-0.4601,-0.4601,-0.4618,-0.4604,-0.4596,-0.4593,-0.4594,-0.4594,-0.4597,-0.4598,-0.4625,-0.4593,-0.4595,-0.4595,-0.4596,-0.4683,-0.4684,0,0,0,0,0,0,-0.4607,-0.4607,-0.4626,-0.4626,-0.4604,-0.4603,-0.4602,-0.4608,-0.4603,-0.4601,-0.4595,-0.4592,-0.4596,-0.4597,-0.4598,-0.464,-0.4595,-0.4596,-0.4597,-0.4681,-0.4683,-0.4685,0,0,0,0,0,0,-0.4607,-0.4609,-0.4626,-0.4616,-0.4617,-0.4605,-0.4612,-0.4609,-0.4612,-0.4603,-0.46,-0.4601,-0.4595,-0.4596,-0.4619,-0.464,-0.4597,-0.4598,-0.468,-0.4682,-0.4684,-0.4725,0,0,0,0,0,0,-0.4606,-0.4609,-0.4623,-0.4616,-0.4618,-0.4647,-0.4613,-0.461,-0.4615,-0.4611,-0.4607,-0.4606,-0.4594,-0.4617,-0.462,-0.4641,-0.4599,-0.4678,-0.4681,-0.4683,-0.4722,-0.4729,-0.4735,0,0,0,0,0,-0.4606,-0.4635,-0.4623,-0.4626,-0.4634,-0.4648,-0.4649,-0.4634,-0.4616,-0.463,-0.4624,-0.4606,-0.4637,-0.462,-0.4623,-0.4644,-0.4676,-0.468,-0.4683,-0.4719,-0.4728,-0.4734,0,0,0,0,0,0,-0.4644,-0.4633,-0.4621,-0.4649,-0.465,-0.4642,-0.4658,-0.4643,-0.465,-0.4646,-0.4628,-0.4627,-0.4653,-0.4651,-0.4632,-0.468,-0.4654,-0.4658,-0.468,-0.4688,-0.4694,-0.4694,-0.46,0,0,0,0,0,-0.4655,-0.4667,-0.4657,-0.4683,-0.4684,-0.4671,-0.4677,-0.4665,-0.4666,-0.4666,-0.4661,-0.4663,-0.4673,-0.468,-0.4689,-0.4722,-0.4721,-0.4738,-0.4744,-0.4749,-0.4753,-0.4771,-0.4779,-0.4696,-0.4696,-0.4696,0,0,-0.468,-0.4675,-0.4684,-0.4691,-0.469,-0.4703,-0.4672,-0.4687,-0.4697,-0.4668,-0.469,-0.4686,-0.4687,-0.4715,-0.4727,-0.4714,-0.4776,-0.4754,-0.4758,-0.4759,-0.4776,-0.4784,-0.4791,-0.4698,-0.4698,-0.4698,0,0,-0.4731,-0.4728,-0.475,-0.4749,-0.4749,-0.474,-0.4745,-0.474,-0.4737,-0.4758,-0.4737,-0.4749,-0.4766,-0.4768,-0.4771,-0.4823,-0.4807,-0.4827,-0.4859,-0.4877,-0.4884,-0.4889,-0.4909,-0.4916,-0.483,-0.4831,-0.4831,0,-0.4761,-0.478,-0.4763,-0.4779,-0.4783,-0.4758,-0.4779,-0.478,-0.4783,-0.4786,-0.4771,-0.4794,-0.4792,-0.4821,-0.4833,-0.4836,-0.4842,-0.4827,-0.4884,-0.4889,-0.4895,-0.4913,-0.492,-0.4833,-0.4833,-0.4832,-0.4832,0,-0.4817,-0.4831,-0.4848,-0.485,-0.4856,-0.4875,-0.4862,-0.487,-0.4858,-0.4851,-0.4874,-0.4871,-0.4879,-0.4885,-0.4874,-0.4912,-0.4904,-0.4887,-0.4861,-0.4905,-0.4922,-0.4929,-0.4836,-0.4836,-0.4835,-0.4834,0,0,-0.4893,-0.4886,-0.4892,-0.4894,-0.4891,-0.4901,-0.4919,-0.4927,-0.4935,-0.4937,-0.4953,-0.4969,-0.4953,-0.4956,-0.4945,-0.496,-0.5003,-0.4941,-0.4941,-0.4954,-0.5046,-0.506,-0.5068,-0.4992,-0.4994,-0.4995,-0.5047,0,-0.4943,-0.4973,-0.4958,-0.4991,-0.5003,-0.4979,-0.4995,-0.4996,-0.499,-0.5001,-0.4994,-0.5006,-0.4984,-0.4986,-0.5,-0.4995,-0.5022,-0.4991,-0.5008,-0.5008,-0.5009,-0.5077,-0.5091,-0.5141,-0.5053,-0.5054,-0.5055,0,-0.5005,-0.501,-0.5043,-0.5039,-0.5044,-0.5058,-0.5064,-0.5074,-0.5075,-0.5069,-0.5074,-0.5059,-0.5078,-0.5051,-0.5077,-0.5056,-0.5062,-0.5061,-0.5062,-0.5064,-0.5035,-0.5081,-0.5156,-0.5164,-0.5065,-0.5064,-0.5064,0,-0.5058,-0.5073,-0.5095,-0.5096,-0.5091,-0.5102,-0.5101,-0.51,-0.5106,-0.5111,-0.5115,-0.5123,-0.5127,-0.5134,-0.5123,-0.5104,-0.5151,-0.5123,-0.5148,-0.5148,-0.5159,-0.5159,-0.5236,-0.5162,-0.5162,-0.5161,-0.5161,0,-0.5115,-0.5137,-0.5118,-0.5132,-0.5156,-0.5139,-0.5163,-0.5159,-0.5159,-0.5172,-0.5152,-0.5165,-0.5148,-0.516,-0.5151,-0.5174,-0.5176,-0.5173,-0.5171,-0.5176,-0.5176,-0.518,-0.5177,-0.5163,-0.5163,-0.5163,-0.5162,0,-0.5178,-0.5167,-0.5189,-0.5183,-0.5181,-0.5199,-0.5194,-0.5207,-0.52,-0.5217,-0.522,-0.5209,-0.5222,-0.5211,-0.5223,-0.5217,-0.5249,-0.5241,-0.5248,-0.5247,-0.5272,-0.527,-0.5356,-0.5367,-0.5284,-0.5285,-0.5286,0,-0.5216,-0.5232,-0.5227,-0.5234,-0.5234,-0.5246,-0.5251,-0.5236,-0.5243,-0.5245,-0.5258,-0.5268,-0.5276,-0.5298,-0.5292,-0.5302,-0.5294,-0.5324,-0.5296,-0.53,-0.5296,-0.5296,-0.5298,-0.533,-0.5331,-0.5331,-0.5332,0,-0.5285,-0.5279,-0.5287,-0.5294,-0.5301,-0.5306,-0.5309,-0.5316,-0.53,-0.5309,-0.5321,-0.5327,-0.534,-0.5352,-0.5359,-0.5359,-0.5343,-0.5341,-0.5347,-0.5353,-0.5357,-0.5356,-0.5265,-0.5339,-0.5338,-0.5338,-0.5337,-0.5337,-0.5338,-0.5351,-0.535,-0.536,-0.536,-0.5364,-0.5376,-0.537,-0.538,-0.5389,-0.5379,-0.5395,-0.5395,-0.5404,-0.5405,-0.5418,-0.5406,-0.5415,-0.5417,-0.542,-0.5424,-0.5354,-0.5419,-0.5419,-0.5419,-0.5419,-0.5418,0,-0.5406,-0.5404,-0.5414,-0.5419,-0.5427,-0.5411,-0.5413,-0.5422,-0.5436,-0.5437,-0.5445,-0.546,-0.5471,-0.5466,-0.5476,-0.5488,-0.5481,-0.5491,-0.549,-0.5491,-0.5434,-0.5428,-0.5496,-0.5496,-0.5496,-0.5496,-0.5496,-0.5496,-0.5443,-0.5465,-0.5458,-0.5481,-0.5479,-0.5493,-0.5496,-0.55,-0.5501,-0.5518,-0.5527,-0.5523,-0.5523,-0.5533,-0.5543,-0.5541,-0.5546,-0.5559,-0.5555,-0.5502,-0.5494,-0.5487,-0.5481,-0.556,-0.556,-0.561,-0.5611,-0.5611]},{"header":{"parameterUnit":"m.s-1","parameterCategory":1,"la1":30.2991,"la2":30.254,"lo1":-89.0895,"lo2":-89.0444,"dy":0.0017,"dx":0.0017,"nx":28,"ny":28,"refTime":"2023-09-24T21:00:00:Z","depth":0,"parameterNumber":3,"parameterNumberName":"V-component_of_WINDS"},"data":[0,0,0,0,0,0,0,0,0,0,0,0,0,0,0,0,0,0,0,0,0,0,0,0,0,0,0,0,0,0,0,0,0,0,0,0,0,0,0,0,0,0,0,0,0,0,0,0,0,0,0,0,0,0,0,0,0,0,3.2587,3.2588,0,3.267,3.2671,3.2672,3.2727,3.2728,3.2728,3.2728,3.2809,3.2811,3.2812,0,0,0,0,0,0,0,0,0,0,0,0,0,3.247,3.2472,3.2587,3.2588,3.2589,3.267,3.2671,3.2672,3.2727,3.2728,3.2728,3.2729,3.2808,3.281,3.2812,0,0,0,0,0,0,0,0,0,0,0,0,0,3.2533,3.2472,3.2587,3.2627,3.2631,3.267,3.2671,3.2673,3.2727,3.2728,3.2728,3.2729,3.2808,3.281,3.2813,3.2818,0,0,3.2821,3.2822,0,0,0,0,0,0,0,0,3.253,3.2538,3.262,3.2624,3.2629,3.2689,3.2659,3.2721,3.2727,3.269,3.2728,3.2729,3.2768,3.2774,3.2788,3.2821,3.2825,3.2821,3.2823,3.2824,3.2825,0,0,0,0,0,0,0,3.2525,3.2534,3.262,3.2621,3.2626,3.2638,3.2648,3.2671,3.2725,3.2694,3.2698,3.2707,3.2771,3.2786,3.2791,3.2826,3.2821,3.2823,3.2825,3.2826,3.2862,3.2862,0,0,0,0,0,0,3.2515,3.253,3.2617,3.2622,3.258,3.2639,3.265,3.2669,3.2725,3.2734,3.2707,3.2709,3.2781,3.2787,3.2794,3.28,3.2824,3.2826,3.2828,3.2863,3.2862,3.2862,0,0,0,0,0,0,3.2513,3.2523,3.2614,3.2578,3.259,3.2641,3.2661,3.267,3.2685,3.2735,3.2744,3.2712,3.2781,3.279,3.2811,3.2804,3.2828,3.283,3.2864,3.2863,3.2862,3.2815,0,0,0,0,0,0,3.2509,3.2521,3.2526,3.2577,3.2592,3.2632,3.2661,3.2672,3.269,3.2695,3.2742,3.2751,3.2783,3.2806,3.2813,3.2808,3.2832,3.2865,3.2863,3.2862,3.2818,3.2813,3.2809,0,0,0,0,0,3.2505,3.2509,3.2526,3.2536,3.2599,3.2631,3.2639,3.2677,3.269,3.2693,3.2724,3.2749,3.2803,3.2808,3.2816,3.2812,3.2865,3.2864,3.2862,3.282,3.2814,3.2809,0,0,0,0,0,0,3.2456,3.2517,3.2536,3.2558,3.2589,3.2641,3.2647,3.267,3.2698,3.2701,3.2744,3.2755,3.277,3.2793,3.2797,3.2817,3.2837,3.2837,3.2802,3.2797,3.2792,3.2786,3.2834,0,0,0,0,0,3.2447,3.2471,3.2522,3.2537,3.2551,3.2596,3.2611,3.2637,3.2671,3.2684,3.2717,3.2747,3.277,3.2785,3.2809,3.2821,3.283,3.2822,3.2817,3.2813,3.2813,3.2817,3.2813,3.2857,3.2857,3.2857,0,0,3.2431,3.2467,3.2479,3.2528,3.2555,3.2575,3.2607,3.2628,3.2643,3.2687,3.2708,3.2732,3.2768,3.2784,3.2792,3.2803,3.2802,3.2811,3.2808,3.281,3.2815,3.2811,3.2807,3.2856,3.2856,3.2856,0,0,3.2411,3.2442,3.2456,3.2481,3.2522,3.2551,3.2553,3.2601,3.2619,3.2641,3.2673,3.269,3.2731,3.2754,3.2771,3.2754,3.2778,3.2761,3.2738,3.2741,3.2738,3.2735,3.2727,3.2724,3.276,3.276,3.276,0,3.2385,3.242,3.2459,3.2478,3.2496,3.2537,3.2549,3.2572,3.2617,3.2628,3.264,3.2689,3.2717,3.2736,3.2732,3.2745,3.2747,3.2756,3.2736,3.2733,3.2731,3.2723,3.272,3.2758,3.2758,3.2758,3.2758,0,3.2384,3.2406,3.2412,3.2455,3.2474,3.249,3.2529,3.2543,3.2566,3.2592,3.2612,3.2645,3.2676,3.2682,3.2705,3.2704,3.2709,3.2728,3.2749,3.2724,3.2717,3.2715,3.2754,3.2755,3.2756,3.2756,0,0,3.234,3.2401,3.2402,3.242,3.2466,3.2483,3.2497,3.2527,3.2537,3.2566,3.2578,3.2609,3.2625,3.2644,3.267,3.2673,3.2654,3.2691,3.2692,3.2681,3.2651,3.2636,3.2632,3.2669,3.2669,3.2669,3.2647,0,3.2326,3.2357,3.239,3.2408,3.2427,3.2463,3.2475,3.2503,3.2526,3.2544,3.257,3.2591,3.2612,3.2623,3.2628,3.2655,3.2648,3.2657,3.2678,3.2679,3.2668,3.2629,3.2615,3.2593,3.2645,3.2645,3.2645,0,3.2315,3.2341,3.236,3.24,3.2409,3.242,3.2448,3.2465,3.2495,3.2511,3.2531,3.2557,3.2571,3.2589,3.2608,3.2613,3.2623,3.2637,3.2637,3.264,3.266,3.263,3.2587,3.2583,3.2641,3.2642,3.2642,0,3.2278,3.2318,3.2334,3.2348,3.2395,3.2401,3.242,3.2451,3.2465,3.2489,3.2498,3.2522,3.2536,3.2553,3.2584,3.2595,3.2597,3.2619,3.261,3.2609,3.2609,3.2609,3.2566,3.2617,3.2617,3.2617,3.2617,0,3.2259,3.2269,3.2317,3.2327,3.2338,3.2374,3.2383,3.2406,3.2431,3.2444,3.2476,3.2487,3.2527,3.2542,3.2566,3.2575,3.2582,3.2594,3.26,3.2591,3.2589,3.2598,3.2599,3.2616,3.2616,3.2617,3.2617,0,3.2221,3.2254,3.2273,3.2314,3.2324,3.233,3.2364,3.2373,3.2397,3.2412,3.2418,3.2455,3.2473,3.2506,3.2534,3.2549,3.2553,3.2565,3.2543,3.2547,3.2535,3.2535,3.2496,3.2492,3.2546,3.2546,3.2545,0,3.2207,3.2215,3.2256,3.2266,3.2284,3.2301,3.2315,3.235,3.2363,3.2395,3.2399,3.2419,3.2438,3.2465,3.2493,3.2514,3.2525,3.251,3.2528,3.2517,3.2522,3.2521,3.252,3.2505,3.2505,3.2504,3.2503,0,3.2177,3.2192,3.2212,3.2235,3.225,3.2271,3.2293,3.2299,3.2338,3.235,3.2369,3.2383,3.2409,3.2428,3.2452,3.247,3.2492,3.2497,3.2496,3.2486,3.2472,3.2477,3.2531,3.2498,3.2499,3.2499,3.2499,3.25,3.215,3.2157,3.2186,3.2205,3.2224,3.2242,3.2252,3.2276,3.2292,3.2317,3.2335,3.2351,3.2377,3.241,3.2426,3.2438,3.2449,3.2447,3.2447,3.2445,3.244,3.2471,3.2442,3.2443,3.2443,3.2443,3.2443,0,3.2121,3.214,3.2157,3.2185,3.2199,3.2218,3.2241,3.2251,3.2265,3.2287,3.2303,3.2322,3.234,3.2368,3.2387,3.239,3.2401,3.2394,3.2394,3.2397,3.2431,3.243,3.2385,3.2385,3.2385,3.2385,3.2385,3.2385,3.2108,3.212,3.2136,3.2156,3.2175,3.2191,3.2202,3.2218,3.2235,3.2255,3.2269,3.2287,3.231,3.233,3.2345,3.2353,3.2358,3.2347,3.2358,3.2389,3.2395,3.24,3.2399,3.2348,3.2348,3.2322,3.2322,3.2322]}]]